Appleton, MN

7:39 AM CDT on October 20, 2017 (GMT -0500)
Appleton Municipal

Weather History for KAQP - May, 2012

Change the Weather History Date:

Tuesday, May 1, 2012

  Actual Average Record
Temperature  
Mean Temperature 70 °F -  
Max Temperature 86 °F 63 °F 118 °F (1997)
Min Temperature 55 °F 38 °F 24 °F (1997)
Cooling Degree Days 6    
Growing Degree Days 20 (Base 50)    
Moisture  
Dew Point 52 °F    
Average Humidity 61    
Maximum Humidity 94    
Minimum Humidity 27    
Precipitation  
Precipitation 0.00 in - - ()
Sea Level Pressure  
Sea Level Pressure 29.55 in    
Wind  
Wind Speed 11 mph (South)    
Max Wind Speed 22 mph    
Max Gust Speed 29 mph    
Visibility 9 miles    
Events Rain , Thunderstorm    
Averages and records for this station are not official NWS values.
T = Trace of Precipitation, MM = Missing Value Source: NWS Daily Summary

Daily Weather History Graph

Daily Weather History Graph

Search for Another Location

Airport or City:

Trip Planner

Search our weather history database for the weather conditions in past years. The results will help you decide how hot, cold, wet, or windy it might be!

Date:

Astronomy

May. 01, 2012 Rise Set
Actual Time 6:12 AM CDT 8:30 PM CDT
Civil Twilight 5:39 AM CDT 9:03 PM CDT
Nautical Twilight 4:58 AM CDT 9:44 PM CDT
Astronomical Twilight 4:13 AM CDT 10:30 PM CDT
Moon 3:22 PM CDT (5/1) 3:24 AM CDT (5/1)
Length of Visible Light 15h 24m
Length of Day
14h 18m
Waxing Gibbous, 74% of the Moon is Illuminated
May 1
Waxing Gibbous
May 5
Full
May 12
Last Quarter
May 20
New
May 28
First Quarter

Hourly Weather History & Observations

Time (CDT) Temp. Heat Index Dew Point Humidity Pressure Visibility Wind Dir Wind Speed Gust Speed Precip Events Conditions
12:15 AM 57.2 °F - 41.0 °F 55% 29.71 in 10.0 mi SE 8.1 mph - N/A   Scattered Clouds
12:35 AM 59.0 °F - 42.8 °F 55% 29.71 in 10.0 mi SE 6.9 mph - N/A   Overcast
12:54 AM 59.0 °F - 44.6 °F 59% 29.71 in 10.0 mi SE 6.9 mph - N/A Rain Light Rain
1:14 AM 60.8 °F - 44.6 °F 55% 29.70 in 10.0 mi SSE 8.1 mph - N/A   Mostly Cloudy
1:35 AM 60.8 °F - 46.4 °F 59% 29.69 in 10.0 mi SSE 6.9 mph - N/A   Mostly Cloudy
1:55 AM 60.8 °F - 46.4 °F 59% 29.68 in 10.0 mi SSE 9.2 mph - N/A   Scattered Clouds
2:15 AM 60.8 °F - 48.2 °F 63% 29.67 in 10.0 mi SSE 11.5 mph 16.1 mph N/A   Mostly Cloudy
2:34 AM 59.0 °F - 48.2 °F 67% 29.66 in 10.0 mi SSE 11.5 mph - N/A   Mostly Cloudy
2:54 AM 59.0 °F - 50.0 °F 72% 29.65 in 10.0 mi SSE 12.7 mph 20.7 mph N/A   Scattered Clouds
3:15 AM 57.2 °F - 50.0 °F 77% 29.65 in 10.0 mi SSE 12.7 mph 19.6 mph N/A   Clear
3:35 AM 57.2 °F - 50.0 °F 77% 29.65 in 7.0 mi SSE 12.7 mph 20.7 mph N/A   Clear
3:55 AM 57.2 °F - 51.8 °F 82% 29.65 in 7.0 mi SSE 13.8 mph 20.7 mph N/A   Scattered Clouds
4:14 AM 57.2 °F - 51.8 °F 82% 29.64 in 7.0 mi SSE 13.8 mph 19.6 mph N/A   Mostly Cloudy
4:34 AM 57.2 °F - 51.8 °F 82% 29.64 in 7.0 mi SSE 11.5 mph 18.4 mph N/A   Mostly Cloudy
4:55 AM 57.2 °F - 51.8 °F 82% 29.64 in 7.0 mi South 11.5 mph 16.1 mph N/A   Scattered Clouds
5:14 AM 57.2 °F - 51.8 °F 82% 29.64 in 5.0 mi South 9.2 mph - N/A   Haze
5:34 AM 57.2 °F - 51.8 °F 82% 29.63 in 5.0 mi SSE 8.1 mph - N/A   Haze
5:54 AM 55.4 °F - 51.8 °F 88% 29.62 in 5.0 mi SE 8.1 mph - N/A   Clear
6:15 AM 55.4 °F - 51.8 °F 88% 29.61 in 5.0 mi SE 8.1 mph - N/A   Clear
6:34 AM 55.4 °F - 53.6 °F 94% 29.61 in 5.0 mi SE 9.2 mph - N/A   Clear
6:54 AM 55.4 °F - 51.8 °F 88% 29.61 in 4.0 mi SE 8.1 mph - N/A   Clear
7:35 AM 57.2 °F - 53.6 °F 88% 29.61 in 5.0 mi SSE 12.7 mph 17.3 mph N/A   Haze
7:55 AM 59.0 °F - 53.6 °F 82% 29.61 in 5.0 mi South 12.7 mph 18.4 mph N/A   Haze
8:15 AM 59.0 °F - 55.4 °F 88% 29.61 in 5.0 mi SSE 10.4 mph 17.3 mph N/A   Overcast
8:35 AM 60.8 °F - 55.4 °F 82% 29.60 in 5.0 mi South 11.5 mph 17.3 mph N/A   Haze
9:34 AM 62.6 °F - 55.4 °F 77% 29.59 in 7.0 mi South 12.7 mph 18.4 mph N/A   Overcast
9:54 AM 62.6 °F - 55.4 °F 77% 29.58 in 7.0 mi South 11.5 mph 17.3 mph N/A   Overcast
10:15 AM 62.6 °F - 57.2 °F 82% 29.58 in 7.0 mi South 9.2 mph - N/A   Overcast
10:34 AM 64.4 °F - 57.2 °F 77% 29.56 in 10.0 mi South 12.7 mph 19.6 mph N/A   Overcast
10:55 AM 68.0 °F - 57.2 °F 68% 29.55 in 10.0 mi SSE 15.0 mph - N/A   Scattered Clouds
11:15 AM 69.8 °F - 57.2 °F 64% 29.54 in 10.0 mi South 12.7 mph 23.0 mph N/A   Clear
11:35 AM 71.6 °F - 57.2 °F 60% 29.54 in 10.0 mi South 17.3 mph 23.0 mph N/A   Clear
11:55 AM 71.6 °F - 57.2 °F 60% 29.52 in 10.0 mi South 17.3 mph 24.2 mph N/A   Clear
12:15 PM 73.4 °F - 57.2 °F 57% 29.53 in 10.0 mi South 11.5 mph - N/A   Scattered Clouds
12:35 PM 73.4 °F - 57.2 °F 57% 29.53 in 10.0 mi South 12.7 mph 18.4 mph N/A   Overcast
12:55 PM 73.4 °F - 57.2 °F 57% 29.53 in 10.0 mi SSW 13.8 mph 19.6 mph N/A   Overcast
1:15 PM 73.4 °F - 57.2 °F 57% 29.52 in 10.0 mi SSW 9.2 mph - N/A   Mostly Cloudy
1:35 PM 75.2 °F - 57.2 °F 53% 29.50 in 10.0 mi South 12.7 mph 16.1 mph N/A   Scattered Clouds
1:55 PM 75.2 °F - 57.2 °F 53% 29.50 in 10.0 mi SSW 11.5 mph - N/A   Scattered Clouds
2:14 PM 77.0 °F - 57.2 °F 50% 29.49 in 10.0 mi South 10.4 mph 18.4 mph N/A   Scattered Clouds
2:35 PM 78.8 °F - 57.2 °F 47% 29.48 in 10.0 mi South 6.9 mph - N/A   Scattered Clouds
3:14 PM 80.6 °F 80.3 °F 53.6 °F 39% 29.47 in 10.0 mi SSW 15.0 mph 20.7 mph N/A   Scattered Clouds
3:34 PM 82.4 °F 81.4 °F 53.6 °F 37% 29.46 in 10.0 mi SSW 21.9 mph 28.8 mph N/A   Scattered Clouds
3:54 PM 82.4 °F - 51.8 °F 35% 29.46 in 10.0 mi SW 17.3 mph 25.3 mph N/A   Scattered Clouds
4:15 PM 82.4 °F - 51.8 °F 35% 29.45 in 10.0 mi SW 20.7 mph 28.8 mph N/A   Clear
4:34 PM 84.2 °F - 46.4 °F 27% 29.45 in 10.0 mi WSW 19.6 mph 26.5 mph N/A   Scattered Clouds
4:55 PM 86.0 °F - 48.2 °F 27% 29.44 in 10.0 mi WSW 16.1 mph - N/A   Clear
5:14 PM 84.2 °F - 50.0 °F 30% 29.43 in 10.0 mi West 17.3 mph 20.7 mph N/A Thunderstorm Clear
5:34 PM 84.2 °F - 46.4 °F 27% 29.44 in 10.0 mi SW 12.7 mph - N/A   Clear
5:55 PM 75.2 °F - 48.2 °F 38% 29.45 in 10.0 mi South 17.3 mph 24.2 mph N/A Thunderstorm Thunderstorm
6:14 PM 75.2 °F - 53.6 °F 47% 29.44 in 10.0 mi South 16.1 mph 24.2 mph N/A   Clear
6:35 PM 75.2 °F - 51.8 °F 44% 29.44 in 10.0 mi South 17.3 mph 20.7 mph N/A   Clear
6:55 PM 77.0 °F - 48.2 °F 36% 29.44 in 10.0 mi South 13.8 mph 27.6 mph N/A   Clear
7:14 PM 75.2 °F - 46.4 °F 36% 29.45 in 10.0 mi SSW 11.5 mph 16.1 mph N/A   Clear
7:34 PM 75.2 °F - 48.2 °F 38% 29.47 in 10.0 mi South 15.0 mph 21.9 mph N/A   Clear
7:55 PM 71.6 °F - 50.0 °F 46% 29.47 in 10.0 mi South 8.1 mph 17.3 mph N/A   Clear
8:15 PM 69.8 °F - 51.8 °F 53% 29.46 in 10.0 mi SSW 4.6 mph - N/A   Clear
8:34 PM 69.8 °F - 51.8 °F 53% 29.47 in 10.0 mi SSW 5.8 mph - N/A   Clear
8:55 PM 69.8 °F - 50.0 °F 49% 29.47 in 10.0 mi SW 9.2 mph - N/A   Clear
9:14 PM 69.8 °F - 48.2 °F 46% 29.48 in 10.0 mi SSW 8.1 mph - N/A   Clear
9:34 PM 69.8 °F - 50.0 °F 49% 29.49 in 10.0 mi South 11.5 mph 17.3 mph N/A   Clear
9:54 PM 69.8 °F - 51.8 °F 53% 29.49 in 10.0 mi South 8.1 mph - N/A   Clear
10:15 PM 66.2 °F - 53.6 °F 64% 29.48 in 10.0 mi South 9.2 mph - N/A   Clear
10:35 PM 66.2 °F - 53.6 °F 64% 29.50 in 10.0 mi South 6.9 mph - N/A   Clear
10:54 PM 64.4 °F - 51.8 °F 64% 29.51 in 10.0 mi South 9.2 mph - N/A   Clear
11:14 PM 64.4 °F - 53.6 °F 68% 29.52 in 10.0 mi South 15.0 mph 20.7 mph N/A   Clear
11:35 PM 64.4 °F - 53.6 °F 68% 29.54 in 10.0 mi SSW 11.5 mph 20.7 mph N/A   Scattered Clouds
11:54 PM 62.6 °F - 53.6 °F 72% 29.54 in 10.0 mi SSW 9.2 mph - N/A   Scattered Clouds